Printer-friendly version

IAU Minor Planet Center

Minor Planet Center

MPEC 2006-S04 : 2006 RH7

The following Minor Planet Electronic Circular may be linked-to from your own Web pages, but must not otherwise be redistributed electronically.


Read MPEC 2006-S03 Read MPEC 2006-S05


M.P.E.C. 2006-S04                                Issued 2006 Sept. 16, 10:32 UT

     The Minor Planet Electronic Circulars contain information on unusual
         minor planets and routine data on comets.  They are published
   on behalf of Commission 20 of the International Astronomical Union by the
          Minor Planet Center, Smithsonian Astrophysical Observatory,
                          Cambridge, MA 02138, U.S.A.

                  Supported in part by the Brinson Foundation
                  Supported in part by the TABASGO Foundation
             Prepared using the Tamkin Foundation Computer Network

                              MPC@CFA.HARVARD.EDU
          URL http://cfa-www.harvard.edu/iau/mpc.html  ISSN 1523-6714

                                   2006 RH7

Observations:
     K06R07H* C2006 09 15.25695 00 14 06.08 -01 49 40.2          20.1 V ES004691
     K06R07H  C2006 09 15.27428 00 14 03.59 -01 49 41.1          20.1 V ES004691
     K06R07H  C2006 09 15.29160 00 14 01.07 -01 49 42.0          20.1 V ES004691
     K06R07H  C2006 09 15.37948 00 13 48.23 -01 49 46.9          20.5 V ES004291
     K06R07H  C2006 09 15.38326 00 13 47.67 -01 49 47.1          20.4 V ES004291
     K06R07H  C2006 09 15.38768 00 13 47.02 -01 49 47.4          20.2 V ES004291
     K06R07H  C2006 09 16.27474 00 11 40.12 -01 50 37.7          20.5 V ES004291
     K06R07H  C2006 09 16.27853 00 11 39.54 -01 50 38.1          20.5 V ES004291
     K06R07H  C2006 09 16.28233 00 11 38.95 -01 50 38.4          20.4 V ES004291

Observer details:
291 LPL/Spacewatch II.  Observer R. S. McMillan.  1.8-m f/2.7 reflector + CCD.
691 Steward Observatory, Kitt Peak.  Observer R. S. McMillan.  0.9-m f/3
    reflector + CCD.

Orbital elements:
2006 RH7                                                 Earth MOID = 0.0570 AU
Epoch 2006 Sept. 22.0 TT = JDT 2454000.5                MPC
M 338.45062              (2000.0)            P               Q
n   0.29363969     Peri.  112.42323     -0.38488399     -0.92296468
a   2.2417794      Node     0.21728     +0.76134130     -0.31792735
e   0.7628782      Incl.   10.96657     +0.52175065     -0.21692950
P   3.36           H   20.8           G   0.15           U   9
Residuals in seconds of arc
060915 691  0.0   0.1+    060915 291  0.2+  0.1+    060916 291  0.1+  0.3+
060915 691  0.3+  0.2+    060915 291  0.1+  0.1+    060916 291  0.2+  0.1+
060915 691  0.2+  0.2+    060915 291  0.1+  0.0     060916 291  0.2+  0.0

Ephemeris:
2006 RH7                 a,e,i = 2.24, 0.76, 11                  q = 0.5316
Date    TT    R. A. (2000) Decl.     Delta      r     Elong.  Phase     V
2006 09 12    00 20.81   -01 47.0    0.488    1.483   164.5    10.4    20.8
2006 09 22    23 54.38   -01 57.0    0.358    1.362   178.5     1.1    19.4
2006 10 02    23 02.50   -02 06.4    0.250    1.235   157.1    18.4    19.2
2006 10 12    21 22.17   -01 42.6    0.177    1.105   123.0    49.3    19.1
2006 10 22    18 50.41   -00 09.9    0.163    0.970    76.5    94.1    20.1

Timothy B. Spahr             (C) Copyright 2006 MPC           M.P.E.C. 2006-S04

Read MPEC 2006-S03 Read MPEC 2006-S05


Our Web policy. Index to the CBAT/MPC/ICQ pages.


Valid HTML 4.01!